Location: Ravensburg
(47.7866°N, 9.6124°E)
Time: 11:12:55
(UTC+02:00)

STARS - Pass Details

Date: 19 March 2026
Orbit: 575 x 588 km, 98.2° (Epoch: 18 April)

Event Time Altitude Azimuth Distance (km) Brightness Sun altitude
Rises 03:37:04 0° 1° (N) 2,800 ? -27.8°
Reaches altitude 10° 03:39:37 10° 345° (NNW) 1,896 ? -27.5°
Enters shadow 03:40:09 12° 340° (NNW) 1,739 ? -27.4°
